CAPE
0 0 0 0 0 0 0 0 0 0 0 0 0 0 0 0 0 0 0 0 0 0 0 0 0 0 0 0 0 0 0 0 0 0 0 0 0 0 0 0 0 0 0
0 0 0 0 0 0 0 0 0 0 0 0 0 0 0 0 0 0 0 0 0 0 0 0 0 0 0 0 0 0 0 0 0 0 0 0 0 0 0 0 0 0 0
0 0 0 0 0 0 0 0 0 0 0 0 0 0 0 0 0 0 0 0 0 0 0 0 0 0 0 0 0 0 0 0 0 0 0 0 0 0 0 0 0 0 0
0 0 0 0 0 0 0 0 0 0 0 0 0 0 0 0 0 0 0 0 0 0 0 0 0 0 0 0 0 0 0 0 0 0 0 0 0 0 0 0 0 0 0
0 0 0 0 0 0 0 0 0 0 0 0 0 0 0 0 0 0 0 0 0 0 0 0 0 0 0 0 0 0 0 0 0 0 0 0 0 0 0 0 0 0 0
0 0 0 0 0 0 0 0 0 0 0 0 0 0 0 0 0 0 0 0 0 0 0 0 0 0 0 0 0 0 0 0 0 0 0 0 0 0 0 0 0 0 0
0 0 0 0 0 0 0 0 0 0 0 0 0 0 0 0 0 0 0 0 0 0 0 0 0 0 0 0 0 0 0 0 0 0 0 0 0 0 0 0 0 0 0
0 0 0 0 0 0 0 0 0 0 0 0 0 0 0 0 0 0 0 0 0 0 0 0 0 0 0 0 0 0 0 0 0 0 0 0 0 0 0 0 0 0 0
0 0 0 0 0 0 0 0 0 0 0 0 0 0 0 0 0 0 0 0 0 0 0 0 0 0 0 0 0 0 0 0 0 0 0 0 0 0 0 0 0 0 0
0 0 0 0 0 0 0 0 0 0 0 0 0 0 0 0 0 0 0 0 0 0 0 0 0 0 0 0 0 0 0 0 0 0 0 0 0 0 0 0 0 0 0
0 0 0 0 0 0 0 0 0 0 0 0 0 0 0 0 0 0 0 0 0 1 0 0 0 0 0 0 0 0 0 0 0 0 0 0 1 0 1 0 0 0 0
0 0 0 0 0 0 0 0 0 0 0 0 0 0 0 0 0 0 0 0 0 0 2 0 0 0 0 0 0 0 0 0 0 0 0 0 0 0 0 0 0 0 0
0 0 0 0 0 0 0 0 0 0 0 0 0 0 0 0 0 0 0 0 1 0 2 0 0 0 0 0 1 0 1 0 0 0 0 0 0 0 0 0 0 0 0
0 0 0 0 0 0 0 0 0 0 0 0 0 0 0 0 0 0 0 0 0 0 1 0 0 0 0 0 0 2 0 0 0 0 0 0 0 0 0 0 0 0 0
0 0 1 2 1 1 1 1 2 1 1 1 1 2 4 2 0 0 0 1 1 0 0 0 1 0 0 0 0 0 0 0 0 0 0 0 0 0 0 0 0 0 0
0 2 2 2 2 2 2 1 0 0 0 0 0 1 2 0 1 0 0 2 2 1 0 0 0 0 0 0 4 0 0 0 0 0 0 0 0 0 0 0 0 0 0
0 0 0 1 1 1 1 2 1 0 0 0 0 0 0 0 1 9 12 3 1 2 0 0 0 0 0 0 0 0 0 0 0 0 0 0 0 0 0 0 0 0 0
0 0 0 0 0 0 0 0 1 2 1 1 0 0 0 0 8 20 14 2 0 1 0 0 0 0 0 0 0 0 0 0 0 0 0 0 0 0 0 0 0 0 0
0 0 0 0 0 0 0 0 0 0 0 0 0 0 0 0 0 3 0 0 0 0 0 0 0 0 0 0 0 0 0 0 0 0 0 0 0 0 0 0 0 0 0
0 0 0 0 0 0 0 0 0 0 0 0 0 0 0 0 0 0 1 0 0 0 0 0 0 0 0 0 0 0 0 0 0 0 0 0 0 0 0 0 0 0 0
0 0 0 0 0 0 0 0 0 0 0 0 0 0 0 0 0 0 2 0 0 0 0 0 0 0 0 0 0 0 0 0 0 0 0 0 0 0 0 0 0 0 0
0 0 0 0 0 0 0 0 0 0 0 0 0 0 2 0 0 0 0 0 0 0 0 0 0 0 0 0 0 0 0 0 0 0 0 0 0 0 0 0 0 0 0
0 0 0 0 0 0 0 0 0 0 0 0 0 0 0 0 0 0 0 0 0 0 0 0 0 0 0 0 0 0 0 0 0 0 0 0 0 0 0 0 0 0 0
0 0 0 0 0 0 0 0 0 0 0 0 0 0 0 0 0 0 0 0 0 0 0 0 0 0 0 0 0 0 0 0 0 0 0 0 0 0 0 0 0 0 0
0 0 0 0 0 0 0 0 0 0 0 0 0 0 0 0 0 0 0 0 0 0 0 0 0 0 0 0 0 0 0 0 0 0 0 0 0 0 0 0 0 0 0
0 0 0 0 0 0 0 0 0 0 0 0 0 0 0 0 0 0 0 0 0 0 0 0 0 0 0 0 0 0 0 0 0 0 0 0 0 0 0 0 0 0 0
CIN
0 0 0 0 0 0 0 0 0 0 0 0 0 0 0 0 0 0 0 0 0 0 0 0 0 0 0 0 0 0 0 0 0 0 0 0 0 0 0 0 0 0 0
0 0 0 0 0 0 0 0 0 0 0 0 0 0 0 0 0 0 0 0 0 0 0 0 0 0 0 0 0 0 0 0 0 0 0 0 0 0 0 0 0 0 0
0 0 0 0 0 0 0 0 0 0 0 0 0 0 0 0 0 0 0 0 0 0 0 0 0 0 0 0 0 0 0 0 0 0 0 0 0 0 0 0 0 0 0
0 0 0 0 0 0 0 0 0 0 0 0 0 0 0 0 0 0 0 0 0 0 0 0 0 0 0 0 0 0 0 0 0 0 0 0 0 0 0 0 0 0 0
0 0 0 0 0 0 0 0 0 0 0 0 0 0 0 0 0 0 0 0 0 0 0 0 0 0 0 0 0 0 0 0 0 0 0 0 0 0 0 0 0 0 0
0 0 0 0 0 0 0 0 0 0 0 0 0 0 0 0 0 0 0 0 0 0 0 0 0 0 0 0 0 0 0 0 0 0 0 0 0 0 0 0 0 0 0
0 0 0 0 0 0 0 0 0 0 0 0 0 0 0 0 0 0 0 0 0 0 0 0 0 0 0 0 0 0 0 0 0 0 0 0 0 0 0 0 0 0 0
0 0 0 0 0 0 0 0 0 0 0 0 0 0 0 0 0 0 0 0 0 0 0 0 0 0 0 0 0 0 0 0 0 0 0 0 0 0 0 0 0 0 0
0 0 0 0 0 0 0 0 0 0 0 0 0 0 0 0 0 0 0 0 0 0 0 0 0 0 0 0 0 0 0 0 0 0 0 0 0 0 0 0 0 0 0
0 0 0 0 0 0 0 0 0 0 0 0 0 0 0 0 0 0 0 0 0 0 0 0 0 0 0 0 0 0 0 0 0 0 0 0 0 0 0 0 0 0 0
0 0 0 0 0 0 0 0 0 0 0 0 0 0 0 0 0 0 0 0 0 0 0 0 0 0 0 0 0 0 0 0 0 0 0 0 0 0 0 0 0 0 0
0 0 0 0 0 0 0 0 0 0 0 0 0 0 0 0 0 0 0 0 0 0 0 0 0 0 0 0 0 0 0 -1 0 0 0 0 0 0 0 0 0 0 0
0 0 0 0 0 0 0 0 0 0 0 0 0 0 0 0 0 0 0 0 0 0 -1 0 0 0 0 0 -1 0 -2 0 0 0 0 0 0 0 0 0 0 0 0
0 0 0 0 0 0 0 0 0 0 0 0 0 0 0 0 0 0 0 0 0 0 0 0 0 0 0 -1 0 0 0 0 0 0 0 0 0 0 0 0 0 0 0
0 0 0 0 0 0 0 0 0 0 0 0 0 0 0 0 0 -1 -1 0 0 0 0 0 0 0 0 0 -1 0 0 0 0 0 0 0 0 0 0 0 0 0 0
0 0 0 0 0 0 0 0 0 0 0 0 0 -2 0 0 -2 -4 -3 -1 -1 0 0 0 0 0 0 0 -1 0 0 0 0 0 0 0 0 0 0 0 0 0 0
0 0 0 0 0 0 0 0 0 0 0 0 0 0 -1 0 -4 -2 -1 -2 -1 0 0 0 0 0 0 -1 0 0 0 0 0 0 0 0 0 0 0 0 0 0 0
0 0 0 0 0 0 0 0 0 0 0 0 0 0 0 0 -2 -1 -1 -1 -1 0 0 0 0 0 0 0 0 0 0 0 0 0 0 0 0 0 0 0 0 0 0
0 0 0 0 0 0 0 0 0 0 0 0 0 0 0 0 -4 -2 -1 0 0 0 0 0 0 0 0 0 0 0 0 0 0 0 0 0 0 0 0 0 0 0 0
0 0 0 0 0 0 0 0 0 0 0 0 0 0 0 0 0 0 0 0 0 0 0 0 0 0 0 0 0 0 0 0 0 0 0 0 0 0 0 0 0 0 0
0 0 0 0 0 0 0 0 0 0 0 0 0 0 -1 -1 0 0 0 0 0 0 0 0 0 0 0 0 0 0 0 0 0 0 0 0 0 0 0 0 0 0 0
0 0 0 0 0 0 0 0 0 0 0 0 0 0 -1 0 0 0 0 0 0 0 0 0 0 0 0 0 0 0 0 0 0 0 0 0 0 0 0 0 0 0 0
0 0 0 0 0 0 0 0 0 0 0 0 0 0 0 0 0 0 0 0 0 0 0 0 0 0 0 0 0 0 0 0 0 0 0 0 0 0 0 0 0 0 0
0 0 0 0 0 0 0 0 0 0 0 0 0 0 0 0 0 0 0 0 0 0 0 0 0 0 0 0 0 0 0 0 0 0 0 0 0 0 0 0 0 0 0
0 0 0 0 0 0 0 0 0 0 0 0 0 0 0 0 0 0 0 0 0 0 0 0 0 0 0 0 0 0 0 0 0 0 0 0 0 0 0 0 0 0 0
0 0 0 0 0 0 0 0 0 0 0 0 0 0 0 0 0 0 0 0 0 0 0 0 0 0 0 0 0 0 0 0 0 0 0 0 0 0 0 0 0 0 0
Wind_Speed
39 38 38 39 39 38 38 39 38 38 36 34 34 34 35 36 37 38 40 40 40 40 40 38 37 34 32 30 27 24 24 23 28 25 21 19 18 19 22 24 25 25 25
40 40 41 41 41 40 40 40 39 40 38 36 36 35 35 35 36 38 39 40 41 42 41 40 39 36 35 33 30 28 27 24 26 27 23 22 22 22 24 25 25 25 26
43 42 43 43 43 44 44 43 42 42 40 39 38 37 37 37 38 40 41 42 44 45 44 44 43 41 39 36 34 31 30 27 26 27 27 23 24 24 25 25 25 25 25
43 44 44 44 44 45 45 45 45 44 42 41 40 41 41 41 42 44 45 46 46 46 46 45 43 44 41 39 37 35 31 31 29 27 28 26 25 25 25 26 27 26 25
46 46 46 45 45 45 45 45 46 46 47 46 45 44 45 45 46 46 47 48 49 49 47 47 46 47 44 41 41 38 35 34 34 32 32 31 30 28 30 26 28 27 27
49 49 49 49 48 49 48 48 49 48 48 48 50 50 49 49 48 49 49 49 50 51 51 48 48 46 45 44 44 41 39 36 38 36 34 36 34 31 28 28 28 31 32
50 51 51 51 53 53 52 52 54 53 51 51 50 49 53 53 51 50 51 51 52 51 50 47 48 46 46 44 44 43 41 40 38 36 38 36 35 31 29 30 30 30 31
53 53 53 54 55 56 55 55 55 55 56 54 54 51 50 49 50 49 50 51 53 49 45 45 45 45 43 41 41 42 42 40 39 37 36 33 33 29 29 28 28 29 32
54 55 54 55 58 59 60 61 59 59 59 59 55 55 54 53 48 46 45 44 49 51 50 46 44 45 44 42 42 44 43 42 38 36 33 31 30 27 26 27 30 32 36
55 55 54 54 57 59 60 62 61 60 61 59 60 57 56 57 53 52 48 45 48 49 51 50 49 46 44 41 42 42 45 43 39 35 33 31 30 29 28 28 30 34 34
55 56 56 57 58 59 61 61 62 62 61 62 61 60 58 57 56 54 51 51 49 47 48 48 47 47 46 42 41 45 46 38 38 36 34 33 31 32 30 28 28 30 33
57 58 59 60 61 61 63 63 62 62 63 64 63 63 59 58 56 54 54 53 53 51 48 46 44 41 42 40 40 39 37 35 36 37 36 36 35 33 31 29 28 27 27
64 64 64 64 64 64 65 65 65 63 63 65 63 63 62 57 55 54 53 53 53 54 49 46 42 39 39 39 39 36 35 37 37 38 39 37 33 31 28 28 28 28 29
69 69 68 68 67 65 64 64 64 64 63 63 62 62 60 57 55 51 49 49 50 52 51 45 43 40 38 38 37 35 33 35 38 39 38 34 29 28 28 29 30 29 31
66 66 66 64 63 64 62 61 62 61 60 62 61 59 59 59 53 49 47 46 45 45 43 41 40 40 38 37 35 33 32 33 35 33 33 31 29 29 28 28 27 28 32
60 58 56 57 56 56 58 60 56 60 62 62 63 61 59 60 58 54 51 47 46 42 38 41 41 41 39 37 35 33 33 31 31 31 31 30 30 30 28 27 27 29 30
48 47 47 47 47 49 50 53 58 53 54 56 57 57 58 61 57 52 48 46 45 41 38 38 38 36 35 34 34 32 31 31 27 28 28 30 28 29 28 29 28 28 29
37 35 36 35 37 41 43 44 45 48 49 48 46 49 51 51 50 47 47 40 42 41 39 36 33 28 28 29 29 30 29 28 28 27 28 26 27 26 27 26 25 27 29
30 34 33 32 31 30 32 34 38 42 43 43 43 42 42 45 43 44 45 37 38 39 39 37 31 26 23 25 26 28 28 27 26 25 24 24 22 22 23 23 24 24 26
26 28 24 22 21 20 20 21 27 36 38 37 35 36 35 33 35 37 36 32 34 36 35 34 30 25 23 23 23 24 23 22 22 21 20 20 20 19 21 22 24 25 26
17 15 11 10 10 9 8 7 8 6 31 33 32 31 32 31 32 33 32 27 29 30 29 27 23 22 21 21 21 21 21 21 20 20 19 19 18 20 18 20 22 23 25
9 8 8 8 8 8 9 10 8 3 3 22 30 29 30 29 28 25 19 19 20 20 21 21 22 22 20 19 19 20 19 20 19 18 17 16 15 16 18 20 21 23 26
10 8 7 6 5 8 6 5 4 16 11 24 24 22 20 18 16 14 14 15 16 16 17 17 16 16 17 17 17 16 17 17 16 14 14 16 15 16 17 19 22 25 28
23 23 17 14 8 4 3 5 18 24 24 23 20 18 16 13 10 10 10 11 11 12 12 13 13 12 12 11 10 10 10 10 10 11 11 13 14 16 17 20 23 26 29
15 18 22 22 15 14 7 8 13 18 23 21 20 18 15 11 10 10 8 7 5 5 5 6 5 4 4 4 5 5 5 6 8 8 10 11 14 16 18 22 25 27 29
21 22 22 24 26 27 31 31 29 27 26 25 21 18 15 14 13 11 9 8 8 7 5 3 2 2 0 1 2 3 4 5 7 8 10 13 16 19 20 22 25 27 30
Wind_Direction
320 318 318 318 317 315 309 303 300 298 295 291 286 279 273 269 264 259 257 257 254 253 253 253 254 257 259 262 266 268 272 275 278 285 281 281 273 275 283 288 293 295 299
318 313 313 314 314 312 311 308 304 299 298 293 289 283 278 272 266 262 260 258 257 255 254 253 254 255 257 260 262 263 265 268 275 276 277 276 276 275 281 284 288 292 296
316 314 311 311 312 310 309 307 306 303 300 294 290 285 281 275 269 266 264 262 260 259 257 255 255 255 255 257 258 260 262 264 267 274 277 277 280 278 279 283 285 288 293
314 312 312 312 312 310 310 307 303 300 299 296 291 286 283 279 273 269 267 265 264 262 260 258 256 254 253 254 255 258 259 261 264 266 272 273 275 279 277 279 283 286 290
312 312 311 312 311 311 309 307 304 299 295 293 291 288 284 279 275 272 269 267 266 264 262 260 258 258 253 252 253 254 256 258 261 263 267 271 271 276 274 279 280 286 291
311 309 309 308 307 307 306 304 303 301 300 297 291 287 285 281 276 273 270 268 267 265 264 263 262 257 254 250 249 248 248 248 256 259 262 265 267 271 274 277 280 284 287
308 307 307 306 303 303 302 302 299 298 299 298 296 292 284 282 280 277 273 270 269 267 265 263 262 260 256 254 249 249 248 247 249 251 258 261 265 266 269 273 276 281 284
306 305 305 303 303 301 299 299 297 296 295 295 294 295 292 288 284 281 276 272 269 268 265 263 262 260 256 251 250 249 250 249 250 254 256 261 265 263 266 271 275 280 284
303 303 303 302 301 300 298 296 296 295 293 292 294 292 291 288 287 285 281 277 271 267 266 263 261 260 258 252 251 251 252 252 250 252 257 259 261 260 262 268 272 277 281
303 302 302 301 300 298 297 296 295 295 293 292 290 290 288 285 284 281 280 278 275 271 266 265 261 259 258 252 252 252 252 251 247 249 254 255 255 258 259 265 269 273 277
303 302 301 301 299 298 297 296 295 294 293 291 288 287 285 282 281 279 277 274 274 273 269 266 264 261 258 254 249 255 253 248 246 249 252 253 253 257 260 263 269 272 275
304 302 300 299 298 297 295 294 293 292 290 288 288 285 284 282 280 278 275 271 271 270 269 267 266 262 257 255 251 254 252 245 245 247 249 249 251 255 258 265 268 273 276
303 301 299 299 297 295 293 291 290 289 287 285 285 283 282 282 280 277 275 272 271 268 270 265 263 262 259 254 250 247 246 247 245 245 246 247 251 253 259 265 268 273 278
302 300 299 298 296 294 292 290 288 286 285 284 282 281 280 280 279 277 276 274 272 270 268 263 259 258 258 256 254 247 244 245 246 245 245 248 250 252 260 262 268 272 276
305 303 301 299 297 295 293 290 287 285 283 282 280 279 278 277 277 278 275 273 273 271 268 260 258 256 256 254 252 245 244 248 245 243 242 244 248 255 258 262 268 271 277
309 307 306 304 302 299 296 293 290 286 283 280 277 276 276 275 275 274 272 271 271 269 259 257 257 255 254 252 248 244 244 244 243 242 244 245 250 254 256 261 266 271 275
314 314 313 311 309 306 302 298 293 292 287 282 278 275 273 272 272 271 269 268 268 265 254 256 257 256 253 249 246 242 240 242 240 240 242 247 250 254 256 260 264 270 275
323 322 321 320 318 313 309 305 301 296 291 287 282 278 274 273 270 268 268 263 263 260 253 253 254 253 252 247 244 242 240 241 239 242 245 247 249 252 255 259 264 271 276
332 330 329 328 326 323 320 315 308 300 294 289 286 281 276 270 269 268 266 257 260 258 253 248 250 250 248 247 245 243 239 238 239 241 245 246 247 249 254 260 270 275 281
343 340 339 340 338 335 332 329 323 306 294 292 289 282 279 275 272 270 263 254 257 258 250 245 247 246 249 248 246 244 241 237 238 240 242 245 248 252 259 265 274 280 286
352 350 330 325 335 333 322 290 266 295 306 294 289 283 280 279 276 272 265 255 258 258 246 243 243 247 253 249 246 244 242 240 239 240 242 246 250 258 265 272 279 285 292
317 328 323 315 304 293 283 270 257 246 222 285 290 291 284 283 279 275 266 262 263 258 248 243 247 248 247 247 246 245 242 239 238 239 244 248 254 263 271 277 284 290 294
17 356 347 340 331 293 287 279 260 18 13 322 312 313 310 300 291 283 274 267 265 259 253 247 246 247 252 255 255 248 238 233 234 236 243 252 259 268 274 282 288 292 297
38 35 36 38 38 24 318 284 302 337 19 356 338 331 326 322 315 306 295 284 274 266 260 254 253 250 255 258 251 243 237 235 238 242 247 257 267 275 281 287 292 297 300
44 48 51 50 55 57 61 71 76 70 352 348 356 1 357 346 342 338 333 326 317 297 278 264 261 255 246 233 237 236 237 239 247 253 264 271 277 282 287 292 297 301 304
50 52 54 56 58 58 40 16 7 9 17 25 15 9 13 16 14 17 21 31 40 40 36 13 353 43 31 277 269 258 257 260 265 270 277 280 284 289 295 298 301 305 307